Back to catalog

LEMUR-2 IRINA

AliveScienceSSO
NORAD 68480·PAYLOAD·🇱🇺 Luxembourg

Launched Mar 30, 2026 from Vandenberg Space Force Base

Loading…

Next Passes (next 24 hours)

TLE

FreshSource: Space-Track

Epoch: Sep 14, 2026, 03:00 UTC

1 68480U 26067BS  26257.12563398  .00001999  00000-0  19586-3 0  9996
2 68480  97.7722 214.4085 0003774   2.5015 357.6223 14.93390190 25004

Track LEMUR-2 IRINA in real time with AllMySat

Download on the App Store